Welcome to the New NWS' Forecast!
Most changes are behind the scenes, but click here for differences you might notice.

Regional Weather Roundup (RWR)

Issued by Gray - Portland, ME (GYX)

                            
000
ASUS41 KGYX 091705
RWRGYX
WEATHER ROUNDUP FOR MAINE AND NEW HAMPSHIRE
NATIONAL WEATHER SERVICE GRAY ME
1200 PM EST SUN DEC 09 2018

MEZ002-005-006-010-012-015-018-020-021-024-026-027-029-091800-
MAINE
  
CITY           SKY/WX    TMP DP  RH WIND       PRES   REMARKS
PORTLAND       FAIR      31  13  47 W8        30.30F                  
SANFORD        FAIR      32  16  51 SW6       30.28F                  
BAR HARBOR     FAIR      25  11  55 W8        30.29F                  
WISCASSET      FAIR      29  11  47 S6        30.30F                  
ROCKLAND       FAIR      29  13  51 W10       30.29F WCI  20          
FRYEBURG       FAIR      27  11  51 CALM      30.24F                  
LEWISTONAUBURN FAIR      33  14  45 CALM      30.27F                  
AUGUSTA        FAIR      27  11  51 VRB5      30.26F                  
WATERVILLE     FAIR      26  12  55 MISG      30.22F                  
BANGOR         PTSUNNY   26   9  48 SW7       30.26F                  
GREENVILLE       N/A     17   6  62 S6        30.10F                  
MILLINOCKET    CLOUDY    19   4  51 VRB5      30.22F                  
HOULTON        CLOUDY    12   2  64 SW6       30.20F                  
PRESQUE ISLE   FAIR      15   3  59 VRB3      30.19F                  
FRENCHVILLE    PTSUNNY    6  -2  69 S5        30.10F                  
CARIBOU        PTSUNNY    7  -2  66 S9        30.16F                  
$$

NHZ002-005-008-009-011-012-014-091800-
NEW HAMPSHIRE
  
CITY           SKY/WX    TMP DP  RH WIND       PRES   REMARKS
PORTSMOUTH     MOSUNNY   33  12  42 W10       30.29F                  
ROCHESTER      FAIR      31  14  49 MISG      30.27F                  
NASHUA         FAIR      34  18  52 VRB7      30.31F                  
MANCHESTER     FAIR      32  17  54 SW7       30.29F                  
CONCORD        FAIR      31  17  56 SW3       30.29F                  
LACONIA        CLOUDY    28  16  60 SW8       30.26F                  
PLYMOUTH       CLOUDY    24  14  66 CALM      30.26F                  
BERLIN         CLOUDY    21  13  71 CALM      30.17F                  
WHITEFIELD     CLOUDY    20  13  74 CALM      30.19F                  
JAFFREY        PTSUNNY   28  18  66 SW9G17    30.25F                  
KEENE          FLURRIES  29  19  66 SW10      30.29F WCI  20          
LEBANON        CLOUDY    26  14  60 S9        30.25F                  
MT WASHINGTON  PTSUNNY    5   1  85 W40G53      N/A  WCI -22          
$$

VTZ005-007-008-091800-
VERMONT
  
CITY           SKY/WX    TMP DP  RH WIND       PRES   REMARKS
ST JOHNSBURY     N/A     17  11  77 MISG      30.20F                  
MONTPELIER     CLOUDY    24  16  71 S14       30.20F WCI  12          
BURLINGTON     PTSUNNY   29  20  69 S17G23    30.19F WCI  17          
$$

MAZ007-012-024-CTZ003-RIZ002-NYZ038-NYZ072-091800-
SOUTHERN NEW ENGLAND AND NY
  
CITY           SKY/WX    TMP DP  RH WIND       PRES   REMARKS
WORCESTER      FAIR      29  17  61 W13       30.28F WCI  19          
NANTUCKET      FAIR      33  13  43 SW8       30.37F                  
PROVIDENCE     PTSUNNY   33  16  49 W10       30.36F                  
HARTFORD       PTSUNNY   32  18  56 S6        30.35F                  
ALBANY         FAIR      34  20  56 S7        30.32F                  
NEW YORK CITY  PTSUNNY   35  16  45 SW8       30.40F                  
$$

ANZ081-ANZ082-ANZ150-NHZ014-MEZ023>029-091800-
COASTAL MARINE OBSERVATIONS
  
STATION/POSITION TIME  TEMP    WIND        PRES    WAVE
                       AIR SEA DIR/SP/G            HT/PER
                 (UTC) (F)     (DEG/KT/KT) (MB)    (FT/S)
MOUNT DESERT ROC 1600   26     270/ 16/ 19 1026.9F
MATINICUS ROCK   1600   29     250/ 13/ 15 1026.4F
ISLE OF SHOALS   1600   29     240/ 15/ 16 1027.6F
JEFFREYS LEDGE   1638      46                N/A     3/ 4
CASHES LEDGE BUO 1650   32 46              1026.1F   3/ 5
$$

.............KEY..............
   WCI - WIND CHILL
   TC  - TEMPERATURE IN CELSIUS
   VSB - VISIBILITY IN MILES
   HX  - HEAT INDEX
   FAIR- INDICATES FEW OR NO CLOUDS BELOW 12,000 FT, WITH NO 
         SIGNIFICANT WEATHER AND/OR OBSTRUCTIONS TO VISIBILITY.